Location: Dittelbrunn
(50.0738°N, 10.2196°E)
Time: 03:05:17
(UTC+00:00)

Cosmos 1943 Rocket - Pass Details

Date: 18 September 2020
Orbit: 813 x 842 km, 71.0° (Epoch: 18 October)

Event Time Altitude Azimuth Distance (km) Brightness Sun altitude
Exits shadow 22:35:45 17° 40° (NE) 2,021 4.5 -37.9°
Drops below altitude 10° 22:36:55 10° 37° (NE) 2,445 5.0 -37.9°
Sets 22:39:24 0° 32° (NNE) 3,378 5.9 -38.0°
